Port Angeles, WA

7:26 PM PDT on April 24, 2017 (GMT -0700)
Fairchild International

Weather History for KCLM - August, 2014

Change the Weather History Date:

Tuesday, August 26, 2014

  Actual Average Record
Temperature  
Mean Temperature 63 °F -  
Max Temperature 75 °F 67 °F 86 °F (2016)
Min Temperature 51 °F 50 °F 40 °F (1951)
Degree Days  
Heating Degree Days 2    
Growing Degree Days 13 (Base 50)    
Moisture  
Dew Point 54 °F    
Average Humidity 73    
Maximum Humidity 96    
Minimum Humidity 48    
Precipitation  
Precipitation 0.00 in - - ()
Sea Level Pressure  
Sea Level Pressure 30.03 in    
Wind  
Wind Speed 3 mph (NNW)    
Max Wind Speed 8 mph    
Max Gust Speed -    
Visibility 10 miles    
Events      
Averages and records for this station are not official NWS values.
T = Trace of Precipitation, MM = Missing Value Source: NWS Daily Summary

Daily Weather History Graph

Daily Weather History Graph

Search for Another Location

Airport or City:

Trip Planner

Search our weather history database for the weather conditions in past years. The results will help you decide how hot, cold, wet, or windy it might be!

Date:

Astronomy

Aug. 26, 2014 Rise Set
Actual Time 6:23 AM PDT 8:06 PM PDT
Civil Twilight 5:50 AM PDT 8:39 PM PDT
Nautical Twilight 5:10 AM PDT 9:19 PM PDT
Astronomical Twilight 4:26 AM PDT 10:03 PM PDT
Moon 7:38 AM PDT (8/26) 8:20 PM PDT (8/26)
Length of Visible Light 14h 48m
Length of Day
13h 42m
New Moon, 1% of the Moon is Illuminated
Aug 26
New Moon
Sep 2
First Quarter
Sep 8
Full
Sep 15
Last Quarter
Sep 23
New

Hourly Weather History & Observations

Time (PDT) Temp. Dew Point Humidity Pressure Visibility Wind Dir Wind Speed Gust Speed Precip Events Conditions
12:53 AM 57.9 °F 53.1 °F 84% 30.01 in 10.0 mi Calm Calm - N/A   Clear
1:53 AM 55.4 °F 51.8 °F 88% 30.02 in 10.0 mi Calm Calm - N/A   Clear
2:53 AM 55.0 °F 51.1 °F 86% 30.03 in 10.0 mi Calm Calm - N/A   Clear
3:53 AM 53.1 °F 51.1 °F 93% 30.03 in 10.0 mi WNW 4.6 mph - N/A   Clear
4:53 AM 51.8 °F 50.0 °F 94% 30.03 in 9.0 mi East 3.5 mph - N/A   Clear
5:53 AM 54.0 °F 52.0 °F 93% 30.04 in 9.0 mi Calm Calm - N/A   Clear
6:53 AM 53.1 °F 52.0 °F 96% 30.04 in 10.0 mi Calm Calm - N/A   Clear
7:53 AM 57.9 °F 55.0 °F 90% 30.06 in 10.0 mi Calm Calm - N/A   Clear
8:53 AM 66.0 °F 55.9 °F 70% 30.06 in 10.0 mi Calm Calm - N/A   Clear
9:53 AM 70.0 °F 54.0 °F 57% 30.06 in 10.0 mi NE 4.6 mph - N/A   Clear
10:53 AM 66.0 °F 55.0 °F 68% 30.07 in 10.0 mi North 5.8 mph - N/A   Clear
11:53 AM 72.0 °F 54.0 °F 53% 30.06 in 10.0 mi NNE 5.8 mph - N/A   Clear
12:53 PM 75.0 °F 54.0 °F 48% 30.05 in 10.0 mi Variable 4.6 mph - N/A   Clear
1:53 PM 73.9 °F 54.0 °F 50% 30.05 in 10.0 mi NNE 5.8 mph - N/A   Clear
2:53 PM 75.0 °F 54.0 °F 48% 30.04 in 10.0 mi NNE 3.5 mph - N/A   Clear
3:53 PM 73.0 °F 54.0 °F 51% 30.03 in 10.0 mi North 5.8 mph - N/A   Clear
4:53 PM 68.0 °F 54.0 °F 61% 30.02 in 10.0 mi NW 5.8 mph - N/A   Clear
5:53 PM 68.0 °F 54.0 °F 61% 30.01 in 10.0 mi NNW 6.9 mph - N/A   Clear
6:53 PM 66.0 °F 54.0 °F 65% 30.01 in 10.0 mi NW 4.6 mph - N/A   Clear
7:53 PM 63.0 °F 55.0 °F 75% 30.01 in 10.0 mi West 8.1 mph - N/A   Clear
8:53 PM 64.9 °F 55.0 °F 70% 30.01 in 10.0 mi West 6.9 mph - N/A   Clear
9:53 PM 63.0 °F 55.9 °F 78% 30.01 in 10.0 mi West 8.1 mph - N/A   Clear
10:53 PM 62.1 °F 55.0 °F 78% 30.00 in 10.0 mi WNW 4.6 mph - N/A   Clear
11:53 PM 57.0 °F 54.0 °F 89% 30.01 in 10.0 mi West 8.1 mph - N/A   Clear